Theta_e
337 337 337 341 342 343 343 344 344 345 344 344 346 345 344 341 342 341 341 340 340 340 341 340 339 339 339 339 340 343 344 342 342 343 344 343 342 342 344 345 346 346 347 349 349 350 351 348 350 350 346 348 348 348 348 348 348 348 348 347 347 346 345 344 344 346 342 343 343 344 346 346 347 348 349 349 349 348 346 346 346 343 343 346 348
333 338 338 340 342 342 343 344 344 344 344 344 345 345 344 345 343 342 341 341 341 341 340 339 340 339 339 340 342 343 344 343 344 344 344 343 343 343 344 346 346 346 347 349 350 349 350 350 347 348 347 347 348 348 347 348 347 347 346 346 345 345 345 343 343 344 344 344 346 345 345 345 347 346 348 349 348 347 345 345 345 342 340 347 346
331 335 338 339 341 341 342 344 345 344 345 345 345 345 345 345 342 342 342 342 341 341 340 341 340 339 340 342 342 344 344 344 344 345 345 344 344 345 345 345 345 347 348 350 350 351 350 348 349 350 348 347 347 347 347 347 346 345 345 345 344 344 343 342 343 342 342 342 343 343 345 346 345 345 348 348 348 347 345 345 345 345 343 348 346
329 334 335 337 340 340 341 343 343 344 344 344 344 345 345 345 343 342 342 342 341 342 341 341 341 341 343 343 344 344 344 345 346 346 344 345 345 345 345 345 345 347 348 349 350 352 350 350 348 350 348 347 347 345 347 347 345 345 345 344 343 342 341 342 341 341 341 341 340 337 334 333 341 344 347 348 348 347 345 345 345 344 347 346 346
329 332 334 334 336 338 341 342 343 344 343 343 344 345 345 344 343 343 342 340 341 342 342 341 341 344 344 344 345 344 344 345 345 345 345 345 345 345 344 345 346 348 349 350 350 352 351 349 347 347 346 346 346 345 345 345 343 342 342 343 342 341 341 341 340 340 340 339 339 334 329 331 336 344 348 348 348 345 344 344 344 345 344 344 345
326 329 333 335 334 334 340 342 343 343 343 344 345 345 344 343 341 341 341 340 342 342 342 342 343 344 344 344 343 343 345 345 344 344 345 345 345 345 345 345 347 349 350 350 352 349 350 349 349 348 346 345 344 344 344 343 342 341 341 341 340 340 340 340 340 339 338 337 334 328 329 331 337 341 348 348 347 345 344 344 344 345 345 344 345
325 328 330 332 333 333 338 342 343 343 344 345 344 345 345 342 341 340 340 340 341 342 343 343 343 344 344 342 342 345 344 345 344 344 344 345 345 345 345 346 348 349 351 350 352 350 348 348 347 347 347 344 345 344 343 342 341 340 340 340 340 340 339 339 339 337 335 331 327 327 328 330 333 336 347 348 347 345 344 345 345 345 344 343 344
323 327 327 330 332 334 337 341 343 344 344 345 343 342 341 340 340 340 340 341 342 342 343 342 342 341 342 341 341 343 344 344 344 344 344 345 345 346 346 346 349 350 351 351 349 348 349 348 347 346 345 345 344 344 343 342 340 340 340 339 339 339 339 338 337 335 333 327 327 327 329 330 333 335 345 346 344 346 344 343 343 343 343 344 341
325 328 327 329 330 335 336 339 343 343 344 343 341 343 340 340 341 340 340 341 343 343 343 344 342 340 341 341 341 341 343 344 343 344 344 344 344 345 346 347 348 349 351 351 349 348 350 350 348 347 346 344 344 344 343 343 341 340 340 339 339 338 338 337 335 332 329 327 327 328 330 332 334 339 343 346 343 343 342 340 342 344 343 341 341
321 328 329 328 328 333 336 339 342 343 343 342 341 342 340 339 339 339 340 343 342 341 339 339 337 341 341 341 341 340 342 342 342 343 343 343 344 345 347 347 347 347 350 351 349 346 347 349 349 348 345 344 344 343 343 343 342 341 340 339 338 338 337 335 333 331 326 327 328 329 332 335 332 338 341 344 343 343 341 337 337 338 339 341 340
319 323 326 328 328 333 336 339 341 342 341 340 341 340 339 339 338 339 340 341 341 340 337 339 339 340 339 339 340 340 341 342 342 343 343 343 343 344 345 344 345 346 350 350 347 349 349 348 346 345 343 343 343 343 342 342 342 340 340 338 338 337 336 333 329 324 325 326 326 328 334 335 330 336 342 342 342 341 339 338 338 339 340 341 342
318 321 323 326 329 333 336 338 340 342 340 340 341 340 339 339 338 338 338 339 339 340 340 340 339 338 339 338 340 341 341 341 342 342 342 342 342 341 342 341 344 345 340 344 349 349 346 345 346 343 342 342 342 342 342 342 341 340 339 338 337 335 333 330 324 322 322 323 324 324 327 329 331 338 342 342 341 341 340 340 340 340 340 341 340
318 321 323 330 331 332 335 338 339 341 341 340 340 340 340 339 338 338 338 337 339 338 339 339 340 338 339 337 338 341 341 341 341 342 342 342 341 341 342 342 344 346 346 343 345 346 348 346 344 343 341 341 341 341 341 340 340 340 338 337 335 334 330 327 321 321 322 322 323 324 325 328 332 339 340 340 341 341 340 340 339 339 339 340 339
320 323 328 332 332 329 333 337 339 340 341 340 339 339 339 339 338 339 337 339 336 336 338 337 338 338 338 337 339 340 341 341 340 342 342 341 341 342 342 342 341 343 345 345 345 346 346 346 343 342 340 340 340 339 339 339 340 339 336 335 333 331 328 325 324 321 322 323 322 323 325 328 330 339 339 340 340 340 338 338 338 338 338 338 339
325 326 330 332 332 330 328 333 336 338 337 338 336 339 338 337 339 339 337 336 335 333 333 333 335 335 337 338 340 339 341 341 341 341 340 340 341 341 341 342 341 342 343 343 343 343 343 344 341 339 339 339 338 338 339 340 340 337 335 333 331 329 326 322 322 321 322 323 323 325 325 328 338 338 339 340 339 337 338 337 337 337 337 337 338
326 329 331 331 332 330 328 327 331 333 333 337 339 339 339 338 337 337 336 337 336 333 331 333 333 334 338 339 339 340 340 341 339 339 340 340 339 340 340 340 341 340 340 340 340 341 341 340 339 338 337 338 337 338 339 339 337 335 333 331 329 327 325 323 321 321 321 322 324 325 325 328 337 336 337 338 337 337 337 337 336 336 336 336 336
326 329 330 331 331 331 330 328 329 329 331 332 333 335 337 337 341 338 339 337 335 333 333 335 336 336 336 339 339 340 340 340 340 339 339 339 339 339 340 339 339 339 340 341 339 339 339 339 337 336 337 338 339 339 339 337 335 333 331 330 329 328 325 322 320 319 320 322 324 325 326 327 335 335 336 337 337 336 336 336 335 335 334 335 335
324 327 329 331 331 331 329 328 329 329 326 325 328 331 335 337 338 338 337 336 335 334 334 335 335 335 335 334 335 334 335 338 338 338 338 339 339 338 338 339 339 339 339 339 340 339 339 337 336 337 337 338 338 338 337 335 334 332 331 330 328 326 323 320 318 318 320 323 322 322 324 333 336 335 335 336 336 335 335 334 334 334 334 334 334
324 326 329 331 331 330 329 328 328 327 325 324 323 327 331 332 334 334 334 335 334 334 335 335 333 333 332 331 331 328 328 329 333 334 336 335 334 334 336 337 337 339 339 338 338 338 338 336 335 335 336 337 338 337 336 334 333 332 330 328 325 322 320 319 317 317 318 320 321 322 323 335 336 335 335 335 335 334 334 333 332 331 332 332 332
324 326 328 330 331 330 328 327 327 325 325 324 324 323 327 328 331 332 332 334 333 333 334 334 329 328 327 326 325 325 324 326 324 330 329 332 330 329 332 336 337 337 337 337 337 337 337 335 334 333 334 335 335 334 332 332 332 330 328 325 321 318 318 316 314 315 316 316 317 321 331 334 334 334 334 333 333 334 332 331 331 330 330 330 330
324 326 327 328 330 329 327 326 326 326 325 325 324 324 325 327 328 327 328 330 331 331 332 327 322 321 321 320 321 324 323 325 326 326 322 326 322 325 330 335 334 334 336 336 336 337 336 334 334 334 334 335 332 329 328 331 330 328 326 322 318 317 315 315 315 314 316 315 318 321 333 334 333 334 334 332 331 331 330 330 329 330 330 329 329
322 325 327 328 328 329 327 326 326 326 326 325 325 326 327 326 325 326 326 326 326 324 322 321 319 320 321 324 324 322 322 321 322 321 323 322 323 323 326 332 334 333 333 335 335 335 335 334 334 335 334 331 327 326 325 324 325 324 321 318 317 315 314 314 315 315 314 315 317 325 333 334 333 333 332 331 330 329 329 329 329 329 329 328 328
320 324 327 327 328 329 327 326 326 326 325 325 325 325 325 325 323 322 322 322 319 319 321 321 321 320 319 320 322 322 322 321 321 322 321 320 323 321 325 329 331 330 330 331 332 335 335 334 332 331 330 326 323 322 322 320 318 316 315 316 315 315 315 315 314 315 315 314 316 327 332 333 332 333 332 330 329 328 329 329 329 329 328 328 328
320 321 326 327 327 327 327 326 326 325 325 325 325 324 324 324 323 322 322 321 321 322 323 321 320 320 320 318 318 319 320 321 317 315 317 322 322 321 323 324 324 324 322 324 328 331 334 330 326 325 322 319 319 318 318 318 317 316 316 315 315 315 315 314 314 315 315 317 318 326 332 332 332 332 330 330 329 329 329 329 330 329 328 328 328
320 321 325 327 327 327 327 326 326 325 324 324 324 323 323 323 323 322 322 322 322 323 323 322 319 317 318 320 319 318 317 317 320 322 324 325 324 324 325 325 324 322 320 321 323 324 323 319 314 313 313 316 316 316 316 316 315 315 315 314 314 314 314 314 315 314 315 316 319 325 330 331 331 330 330 329 329 329 329 329 329 329 328 328 327
321 321 323 326 327 327 326 326 326 325 324 324 324 323 323 322 322 322 322 322 323 322 322 321 319 317 317 318 319 319 319 319 319 320 322 324 323 323 324 323 323 321 321 320 318 318 317 314 313 312 312 313 314 314 314 314 314 314 314 313 313 313 313 313 314 313 315 317 319 324 328 331 330 329 330 329 329 329 329 330 331 330 329 327 326
320 322 324 326 327 326 326 326 325 325 325 325 324 323 323 322 322 322 321 321 322 321 320 320 319 318 318 317 318 319 320 320 319 319 320 322 322 322 323 323 321 319 317 317 316 315 314 313 312 311 311 312 312 313 313 313 313 313 312 312 312 312 313 313 313 313 315 317 317 320 324 328 330 330 329 328 329 329 329 331 330 329 328 327 327
319 322 325 326 324 326 326 326 325 325 325 325 323 323 323 322 322 320 321 321 321 321 321 320 319 318 318 319 318 320 320 319 319 319 319 319 320 320 321 321 319 317 316 316 315 312 312 312 311 310 311 312 312 312 312 312 312 313 312 311 311 311 311 311 311 312 314 317 317 318 323 326 329 330 328 328 328 330 329 329 329 329 328 327 326
318 321 325 326 325 325 326 325 325 325 325 325 322 323 323 322 321 321 321 319 321 321 321 321 318 318 318 316 318 319 319 320 319 319 319 318 317 317 319 319 318 316 315 314 315 312 311 312 311 310 310 311 312 312 312 311 311 311 311 310 310 310 310 310 311 311 313 314 316 318 322 325 329 330 329 330 331 331 330 330 329 328 328 327 325
318 320 324 326 325 326 325 325 326 325 325 324 323 322 322 322 321 321 322 320 321 321 321 320 319 318 318 318 318 319 319 319 319 319 319 317 316 313 312 315 316 315 314 313 313 313 312 311 311 310 310 310 311 310 311 311 311 310 310 309 309 309 309 310 309 310 312 313 314 317 317 322 327 329 329 329 330 330 331 329 328 328 327 326 326
317 319 322 325 325 325 325 325 326 323 325 323 323 323 322 321 321 321 321 321 321 321 320 320 320 319 319 319 318 317 318 316 316 316 317 316 315 315 313 312 313 313 314 313 312 312 311 310 310 310 310 310 309 309 310 310 309 308 308 308 307 307 307 307 307 308 311 311 313 315 316 318 323 326 328 329 329 329 329 330 329 328 327 326 325
316 318 320 324 325 325 325 325 326 325 323 323 322 323 322 322 321 321 320 321 320 321 320 320 318 319 319 319 319 318 317 316 316 315 314 314 313 312 312 312 311 311 312 311 310 311 311 310 309 309 309 310 309 309 309 309 307 306 307 306 305 306 305 305 306 306 307 309 310 312 314 316 318 322 325 328 327 328 329 328 329 328 328 327 327
316 318 320 322 324 325 325 325 325 324 324 323 322 323 322 322 321 321 320 320 320 321 320 319 319 318 318 318 318 318 317 317 315 315 312 313 312 311 311 311 310 310 310 310 310 309 308 308 308 309 308 309 309 308 309 308 306 304 305 305 305 304 303 304 303 304 305 306 307 309 311 312 315 314 318 322 327 327 328 328 328 328 329 328 326
313 317 319 320 323 325 325 325 325 323 323 324 322 322 322 322 321 321 320 320 319 320 320 320 318 317 317 317 317 316 314 316 316 314 313 312 310 310 311 309 309 308 307 307 308 307 307 307 306 307 307 307 307 307 308 306 305 304 304 302 303 302 302 303 302 302 302 302 302 305 306 308 309 310 310 313 318 325 327 326 325 325 328 326 325
312 315 318 320 322 324 324 324 322 324 322 323 322 322 321 321 321 321 320 320 319 320 320 319 317 317 317 316 315 314 313 314 314 314 312 311 310 309 308 307 306 306 306 305 307 306 307 306 305 306 304 305 306 306 307 306 305 305 304 304 303 302 302 302 301 301 301 300 301 301 302 303 305 305 304 305 307 314 322 325 326 325 324 324 324
312 314 317 319 321 324 323 324 322 323 322 323 322 322 322 321 321 318 321 320 319 320 319 319 318 317 316 316 315 314 313 313 312 312 310 308 309 308 306 305 305 305 304 304 305 306 305 304 305 306 304 303 304 303 305 305 305 304 302 303 303 303 302 301 302 301 300 301 301 301 300 300 301 301 302 302 304 309 316 321 325 326 326 325 324
312 314 316 318 320 322 322 323 322 323 322 322 322 322 322 321 321 320 321 320 319 319 319 319 317 316 316 316 315 314 313 312 311 311 309 307 307 307 305 305 304 304 303 302 304 304 304 303 302 304 305 302 304 303 302 304 303 302 301 301 301 302 302 303 302 302 302 303 302 301 302 301 301 302 300 301 302 304 311 316 319 319 319 324 326
312 314 315 317 319 321 323 323 323 323 323 322 322 322 321 321 321 321 319 320 319 320 319 318 317 316 316 316 315 313 312 312 311 310 309 308 307 305 304 303 304 303 302 302 302 301 303 303 300 299 303 303 302 303 301 301 301 300 299 299 298 298 298 300 299 300 303 303 303 304 303 301 301 299 300 300 300 301 305 311 313 313 312 319 323
311 313 315 316 318 320 322 321 322 322 322 322 322 322 321 321 321 320 320 319 319 319 319 318 317 316 316 316 315 313 311 311 309 308 307 306 306 304 303 302 302 302 302 300 299 300 301 302 302 298 298 302 302 301 301 300 299 298 297 295 296 295 295 296 298 299 300 301 302 301 301 301 300 298 299 298 297 301 301 301 302 303 308 315 319
309 312 314 315 316 319 321 322 322 323 323 322 322 321 320 319 317 319 318 318 318 317 318 318 318 317 316 315 315 314 312 310 308 307 307 306 305 304 303 302 303 302 301 299 299 299 300 300 300 300 297 296 298 299 299 297 294 293 292 290 291 293 294 295 296 296 297 298 300 300 301 299 300 298 296 295 295 296 298 299 299 299 301 307 312
307 309 312 314 316 317 319 320 321 323 321 321 320 320 317 317 318 317 316 318 317 317 316 317 317 317 316 316 314 314 313 311 308 307 307 305 306 305 303 302 303 303 302 301 300 300 300 300 299 299 298 296 293 296 297 298 295 292 291 290 290 289 293 292 293 294 295 294 295 298 296 299 298 298 295 294 293 294 295 295 294 297 297 297 299
305 307 310 313 315 316 318 320 322 322 322 321 320 320 320 319 318 317 317 317 316 315 315 316 316 316 315 315 314 314 313 312 308 308 307 306 305 304 303 302 302 303 303 301 300 298 298 298 298 297 297 298 294 294 297 300 295 294 293 290 292 291 291 288 289 291 292 293 294 296 295 297 297 295 293 295 294 293 292 292 293 295 294 296 296
304 306 309 311 313 315 318 319 321 321 321 321 321 320 320 320 320 319 319 317 318 317 317 316 316 316 315 315 315 314 312 311 309 308 307 306 305 304 303 301 301 301 301 300 299 297 297 298 299 299 294 291 291 293 296 300 290 291 291 294 289 292 293 291 289 288 289 291 292 294 293 294 294 292 292 293 292 292 292 292 293 294 294 295 294
303 305 307 309 312 314 317 319 320 321 321 321 318 321 321 321 321 320 320 319 316 316 316 316 315 315 314 314 314 313 312 311 309 308 307 306 305 304 303 301 300 300 301 299 298 297 296 297 299 298 297 294 291 291 292 290 292 295 294 290 286 289 287 289 289 287 286 287 289 290 291 292 289 288 289 292 290 289 290 290 292 293 293 292 293
302 304 306 308 310 312 316 318 320 320 321 320 319 320 319 319 319 319 319 317 314 314 314 313 313 312 313 313 313 313 312 310 309 308 307 306 305 304 302 300 299 298 300 300 299 298 297 297 299 298 298 297 292 290 290 288 294 297 289 282 280 282 284 282 286 285 284 285 286 287 288 289 289 288 288 288 287 286 287 288 288 287 287 288 289
301 303 306 308 309 311 314 317 319 320 320 320 320 319 317 317 316 314 311 312 310 310 310 309 311 311 311 313 313 313 312 311 309 308 308 306 305 304 302 300 299 298 299 300 300 299 298 297 298 299 299 298 297 294 291 288 290 289 287 283 283 281 281 282 285 282 284 286 286 285 285 287 287 287 287 287 287 288 286 287 286 286 286 286 286
298 303 305 306 308 310 312 316 318 319 320 320 320 318 318 317 316 316 315 313 311 313 315 315 313 313 312 311 312 312 312 311 309 308 307 306 305 304 303 301 300 299 298 299 298 298 298 298 297 298 300 297 296 295 293 289 287 287 288 288 287 287 286 284 283 282 282 286 285 285 286 286 285 286 286 285 286 286 286 286 286 286 286 286 286
298 299 302 305 306 308 310 313 316 317 320 320 319 318 318 317 316 316 315 314 314 313 315 315 315 312 312 311 311 311 311 311 310 308 307 305 305 304 303 302 301 300 299 299 298 298 296 295 295 296 297 297 297 296 292 289 293 289 287 287 287 287 286 286 287 285 285 284 285 286 287 286 286 285 285 285 285 285 285 285 285 285 285 286 286
296 297 300 304 306 307 309 311 315 317 318 319 319 318 317 317 317 316 314 315 315 315 314 314 313 311 311 311 310 310 310 310 310 308 307 306 303 303 302 301 300 300 296 300 299 298 296 294 292 292 294 295 297 297 294 292 294 291 288 285 285 284 284 284 282 285 285 285 284 285 286 285 286 286 287 286 286 284 284 285 284 285 285 285 286
295 297 299 302 305 307 307 308 312 316 317 318 318 318 318 316 317 316 315 314 314 314 314 313 313 311 311 310 310 309 309 309 309 308 307 306 304 304 303 301 300 299 296 298 298 298 297 295 294 293 293 292 291 293 294 293 294 292 292 289 286 285 286 287 284 284 284 284 286 285 285 284 283 285 286 288 287 286 286 286 285 285 284 284 284
294 295 297 300 303 306 307 307 310 314 316 317 317 317 317 317 317 316 315 314 314 313 312 311 312 310 310 309 309 309 309 309 308 308 307 306 305 304 303 303 302 297 297 297 297 298 297 297 295 294 293 292 290 291 292 291 290 289 288 289 289 289 288 285 285 283 284 281 283 281 280 282 284 286 286 285 286 287 287 286 286 284 285 285 285
Wind_Speed
5 6 4 10 13 14 15 15 16 16 17 17 14 9 7 11 13 13 13 13 13 13 13 12 11 12 12 11 11 10 11 11 11 9 9 7 6 5 6 7 7 7 8 10 11 13 19 18 17 17 21 21 21 20 20 20 19 19 18 18 18 17 18 17 14 11 9 9 13 13 12 11 13 14 15 15 15 14 11 10 9 7 6 10 14
8 6 6 7 15 14 15 15 16 17 17 16 12 11 12 12 13 13 14 15 15 15 13 13 13 13 11 12 11 11 11 12 11 11 9 8 7 8 8 9 9 9 10 12 14 16 17 18 18 16 19 21 20 20 19 20 20 18 18 18 18 18 16 15 14 13 12 11 10 9 10 12 13 14 16 16 15 14 11 10 11 7 4 13 13
6 6 6 7 14 16 17 16 17 18 18 17 13 14 15 16 15 15 14 14 14 14 14 15 14 11 13 13 11 10 11 11 11 10 10 8 8 9 10 10 11 12 13 14 15 17 19 20 14 17 20 20 21 21 20 21 20 19 18 18 19 17 16 16 14 13 12 12 10 9 9 10 12 14 17 17 16 14 11 10 10 10 8 16 13
5 5 5 9 13 15 17 17 18 18 18 16 15 15 16 17 16 16 16 16 14 14 14 15 13 13 13 13 12 11 11 11 10 11 9 9 9 10 11 12 12 14 14 16 18 19 19 18 17 19 18 16 16 17 21 21 20 19 18 18 17 17 16 16 14 13 13 11 10 8 4 3 7 14 17 17 17 13 9 9 10 12 15 15 16
5 5 6 6 8 13 17 18 18 18 17 18 17 17 18 18 17 17 17 15 14 14 14 13 14 15 14 12 12 11 10 9 9 8 8 8 9 11 11 13 14 15 16 18 20 19 18 16 19 16 15 15 20 18 22 21 20 19 19 18 17 17 16 16 15 14 12 11 9 7 4 3 4 11 18 19 17 13 11 13 15 16 16 16 17
5 5 6 6 7 9 18 18 18 17 19 19 18 18 18 17 16 15 14 15 14 14 14 14 13 14 14 13 11 10 9 8 8 7 7 8 10 12 13 14 16 17 18 20 19 20 20 22 20 21 21 19 18 19 21 20 20 20 19 18 18 17 16 15 14 13 12 10 9 5 5 4 5 7 19 19 17 14 15 16 16 17 16 15 18
6 5 6 7 6 8 14 18 18 18 19 19 18 18 18 18 16 16 15 15 14 14 14 12 14 15 13 13 11 10 8 9 7 5 5 7 10 11 13 15 16 18 19 22 20 19 21 22 24 24 24 22 21 19 21 21 20 20 19 18 18 16 16 14 13 12 11 7 5 4 5 4 3 3 18 18 18 17 17 17 17 18 17 15 17
4 5 6 7 6 8 13 17 17 18 18 18 17 16 16 15 15 15 15 14 13 14 13 14 14 13 13 12 11 9 9 8 8 5 3 4 8 11 13 15 17 20 21 23 20 23 23 20 23 23 23 22 21 22 21 21 20 19 18 18 17 16 15 14 13 12 11 6 5 5 5 4 4 3 16 19 17 18 17 16 15 18 18 16 12
4 4 6 6 6 11 12 14 14 17 18 19 17 17 16 15 13 14 14 14 13 14 12 12 13 13 12 11 9 10 9 9 8 6 5 4 5 8 13 15 17 18 22 24 24 22 21 22 23 23 22 22 20 22 21 21 20 19 18 18 17 16 14 13 12 10 7 5 6 5 5 5 4 6 14 20 19 19 19 15 16 19 17 13 12
3 3 5 4 5 9 10 12 13 16 19 17 15 16 15 15 14 13 14 14 12 8 12 11 3 8 13 11 11 11 10 9 8 7 6 6 5 3 13 14 17 17 22 23 24 21 20 21 20 21 22 22 20 21 22 21 21 19 18 18 17 16 14 14 12 8 6 6 6 5 5 6 3 6 14 19 20 19 16 13 10 10 10 13 16
3 3 3 4 4 8 9 13 13 15 14 14 16 16 15 16 15 14 13 12 10 14 10 11 9 10 10 11 11 10 10 9 8 9 8 8 9 7 9 12 18 17 17 23 22 23 20 21 23 20 23 22 21 21 22 22 20 19 18 18 17 16 15 13 10 6 6 6 6 5 5 7 4 6 17 22 22 19 16 16 14 15 16 18 18
4 2 3 3 5 10 9 12 13 13 14 16 16 14 14 15 15 14 13 13 15 14 14 12 12 9 7 9 11 11 10 9 10 10 9 10 11 11 9 9 11 16 12 12 19 22 22 22 23 24 22 21 21 22 21 21 20 19 18 18 17 16 14 12 7 6 6 6 6 4 4 3 5 12 20 21 21 20 17 17 17 18 20 19 20
4 2 2 3 4 6 9 13 13 14 14 13 16 14 11 11 14 13 14 11 11 12 13 12 12 11 11 10 11 11 11 10 11 11 11 12 11 11 13 12 13 18 18 17 19 22 23 26 25 23 23 21 21 19 19 19 20 19 18 18 17 15 12 11 6 7 6 5 4 4 4 4 4 17 19 20 18 18 19 19 19 18 19 20 20
4 2 3 2 3 5 8 10 12 14 12 15 17 15 14 15 13 12 11 9 11 12 12 8 11 13 12 11 11 11 11 12 11 13 14 14 12 12 14 15 13 16 19 21 22 20 22 23 24 22 22 23 21 18 18 19 19 18 18 17 16 15 12 8 7 6 6 5 4 3 3 2 2 15 17 18 18 16 17 19 17 18 18 19 20
4 3 3 3 4 4 8 9 6 8 10 12 13 11 13 14 13 12 12 9 11 7 6 8 11 14 13 12 12 12 12 13 11 15 15 14 15 15 14 16 15 17 21 20 20 22 21 23 23 22 22 20 19 19 19 20 19 18 18 17 15 13 11 6 6 5 6 5 4 4 3 2 8 15 16 17 17 17 17 18 17 18 17 19 20
3 2 2 3 4 4 6 7 5 5 2 4 7 8 10 12 13 11 12 14 11 10 7 9 12 14 11 11 12 12 14 15 14 15 16 16 17 17 17 17 16 15 18 19 21 23 25 23 22 19 19 20 21 20 20 19 18 17 17 15 14 11 11 7 6 5 6 5 5 4 3 3 9 14 16 17 17 17 19 19 18 18 17 18 19
5 4 6 6 6 6 6 4 3 3 6 4 3 3 5 9 7 8 8 16 16 14 13 14 12 10 10 11 11 10 12 13 16 15 17 17 16 16 16 18 16 16 19 20 18 21 24 22 20 19 18 20 21 21 20 19 18 17 15 13 12 11 11 8 6 5 6 5 5 5 5 4 10 15 15 17 17 18 18 17 17 17 16 16 20
5 6 6 6 5 6 4 4 4 5 4 4 4 4 4 5 7 7 13 15 17 15 14 10 6 5 5 6 4 6 3 10 13 14 15 16 16 16 16 16 16 16 17 18 20 19 19 21 21 18 17 20 21 20 19 19 18 17 15 14 11 11 10 9 5 5 5 6 5 4 3 5 10 14 16 17 18 18 17 17 16 17 17 19 18
5 6 5 6 6 5 4 4 5 5 6 4 3 2 5 7 9 12 12 14 14 12 9 9 8 7 9 9 8 8 5 1 7 13 10 13 16 14 14 17 17 16 18 19 19 20 20 20 21 19 18 17 19 19 20 17 15 16 15 13 13 12 11 7 5 5 5 6 4 4 3 6 12 15 15 16 19 18 17 17 15 16 18 17 18
4 6 6 5 6 6 3 4 5 6 4 5 3 3 5 9 11 13 13 13 13 12 10 10 10 11 12 12 11 8 5 7 6 12 12 12 13 11 13 17 18 18 18 18 18 21 20 20 22 22 21 19 20 18 19 18 17 16 13 12 13 11 7 5 4 4 6 4 3 4 5 10 14 15 16 14 16 18 16 16 16 16 16 16 16
6 7 6 5 7 7 6 5 5 7 7 4 4 3 4 7 9 12 13 12 12 12 10 9 9 9 11 11 10 7 5 6 9 4 4 9 12 14 12 14 15 14 15 16 19 19 18 19 20 22 22 20 19 21 19 18 17 15 14 12 13 8 6 5 5 5 5 4 4 4 10 11 14 15 15 15 15 16 16 16 15 16 17 17 17
6 6 6 6 6 8 6 6 4 7 6 6 5 3 4 4 4 6 7 8 8 8 6 4 4 3 9 9 7 6 5 5 7 9 5 8 11 14 14 13 13 14 15 12 14 16 17 18 19 19 18 16 19 12 12 16 18 15 14 13 8 6 6 6 5 5 4 3 3 4 9 11 14 16 15 16 15 16 16 16 16 16 17 17 17
7 7 7 8 7 8 7 7 6 5 7 7 5 5 5 4 3 4 5 7 7 7 4 4 4 4 1 2 6 6 6 5 6 6 6 9 10 14 15 16 12 13 13 13 11 12 15 16 15 14 15 18 11 8 8 8 9 14 12 9 6 6 6 6 5 5 4 2 2 4 7 14 15 16 18 16 16 17 17 18 17 17 17 17 17
9 9 8 7 7 8 9 8 8 5 7 6 6 5 5 5 4 4 5 5 6 6 5 3 4 4 4 3 3 4 5 6 8 11 10 7 8 13 16 16 15 13 13 9 10 11 14 16 14 11 9 7 7 7 8 7 7 6 6 6 6 6 6 6 6 5 4 2 1 1 7 14 16 18 17 16 16 17 18 18 18 16 16 17 17
10 8 7 7 9 9 9 9 9 7 7 6 7 7 5 4 5 4 4 5 5 5 5 5 4 4 4 4 4 4 5 5 6 7 8 8 8 6 8 8 8 7 9 7 5 5 7 8 7 6 5 6 7 7 7 7 6 6 6 5 6 6 6 6 5 5 3 2 1 1 10 13 15 17 16 16 16 16 17 18 19 19 18 16 17
5 8 11 8 10 10 10 8 10 9 8 7 7 8 8 6 6 5 5 4 5 6 5 5 5 6 5 5 5 7 6 5 5 5 5 7 8 6 7 7 7 7 6 6 5 6 7 6 7 7 6 6 6 6 6 7 7 6 6 5 6 6 6 5 5 5 4 4 5 4 11 13 16 17 17 16 16 16 16 16 18 19 17 17 16
9 10 10 9 9 10 11 9 10 10 10 8 6 7 7 6 6 6 7 6 4 6 5 5 5 6 6 5 6 5 7 7 6 6 6 5 7 7 7 9 8 7 6 7 6 5 7 7 6 6 6 6 6 6 6 6 6 7 6 6 6 6 6 6 5 5 5 5 5 7 7 9 13 18 17 18 17 16 16 18 17 17 17 16 16
8 9 10 10 10 11 11 11 10 11 9 9 8 8 7 7 7 7 7 8 7 6 6 5 5 5 5 6 7 6 7 6 6 7 7 6 6 6 5 8 9 5 5 6 6 3 3 6 7 7 7 6 7 5 6 6 6 7 7 6 6 6 6 6 6 5 5 5 5 5 9 3 10 12 17 18 17 16 17 15 15 16 15 15 15
11 12 9 11 12 11 12 13 12 13 10 10 9 7 8 8 7 7 7 6 8 7 7 6 6 7 6 3 4 6 6 7 8 7 6 7 6 6 7 7 8 8 7 5 4 5 4 5 6 7 7 6 6 6 6 5 5 6 7 7 6 6 5 6 6 5 5 5 4 6 9 3 9 12 15 17 17 17 16 17 15 14 13 14 14
14 12 11 10 12 13 13 14 13 12 11 11 9 8 8 9 9 8 7 8 6 6 7 6 6 7 7 8 6 7 7 7 8 8 8 7 6 4 2 4 7 9 10 9 5 6 6 5 6 6 7 6 6 6 6 6 6 5 6 7 6 6 5 6 6 6 5 5 4 7 10 8 9 13 13 15 15 16 18 16 16 16 15 14 13
12 13 13 10 9 13 14 14 13 12 11 11 10 10 9 9 9 8 6 8 9 6 6 6 7 6 7 7 7 6 6 5 5 5 6 7 6 6 5 2 5 4 8 8 5 6 5 5 6 6 6 6 6 5 6 7 6 6 5 6 5 5 5 5 6 5 5 4 5 6 8 12 11 10 14 15 15 14 14 13 17 17 17 16 14
13 15 13 10 10 14 14 15 15 13 12 12 11 11 11 10 9 8 7 7 7 8 7 6 7 6 7 7 7 7 8 8 8 6 6 6 6 6 7 7 4 5 5 7 5 5 5 5 6 6 5 6 6 5 5 7 6 6 6 6 5 6 5 5 6 5 5 4 4 6 6 8 13 12 10 12 12 14 11 15 14 16 14 15 16
12 14 13 12 13 13 14 14 13 14 15 14 12 11 11 11 10 9 8 7 7 6 7 7 7 7 7 7 8 8 7 9 8 9 8 7 7 8 7 6 5 5 6 7 6 5 6 6 6 7 6 6 7 6 5 6 7 6 7 5 6 5 5 6 6 6 5 3 4 5 6 6 7 11 15 13 8 12 17 17 15 16 16 15 14
12 10 12 15 13 10 9 11 14 13 14 13 12 10 10 11 11 9 8 8 7 7 7 7 7 7 7 7 6 6 6 6 9 8 7 7 7 7 8 7 6 6 6 6 6 5 6 7 7 8 6 6 6 5 6 6 5 6 6 5 6 5 5 6 6 5 5 4 4 5 5 6 6 7 8 13 12 9 8 7 6 13 17 14 12
10 11 16 18 15 13 12 9 13 15 14 13 13 13 9 9 10 11 9 9 8 8 7 7 7 7 6 7 7 6 4 5 6 9 9 8 8 8 7 6 6 7 7 5 7 5 7 7 6 8 7 6 6 5 6 7 7 7 6 6 6 6 6 6 6 6 5 4 5 4 5 5 6 6 7 7 9 11 12 10 4 5 10 11 11
15 16 15 14 16 15 14 14 12 14 15 14 13 13 12 9 10 10 10 10 8 8 8 8 8 7 7 7 7 7 6 5 6 7 8 7 8 7 6 7 7 7 6 6 6 7 5 6 5 8 8 7 7 4 4 7 6 7 5 6 5 5 6 6 6 5 4 5 5 5 5 5 5 6 6 6 6 7 12 11 10 9 8 5 11
17 14 15 16 16 16 15 16 17 15 14 14 14 12 13 11 10 11 12 10 9 9 8 8 8 8 7 7 7 7 7 6 6 7 8 7 6 7 6 7 7 7 7 6 6 6 7 7 5 5 8 7 7 7 4 6 6 6 5 5 4 5 5 5 5 5 4 5 4 4 4 5 5 5 6 6 6 6 8 11 9 8 8 11 9
14 15 16 17 18 17 16 15 15 15 14 14 14 13 12 13 10 10 12 10 10 9 9 9 9 9 8 8 8 7 7 7 7 6 7 7 7 7 7 8 8 8 6 6 6 5 6 8 7 4 7 8 6 8 6 5 6 6 6 5 4 5 4 4 3 3 5 5 4 4 4 4 5 5 6 6 5 6 6 8 8 7 8 7 6
12 15 15 14 13 14 14 15 16 15 14 13 14 13 13 12 11 10 11 11 10 9 10 10 9 9 9 9 9 8 8 7 7 7 8 8 8 8 8 7 6 7 8 7 6 6 6 6 9 5 3 6 8 6 8 7 6 6 6 5 4 4 4 4 3 4 4 4 4 4 4 4 5 4 5 5 4 6 5 4 3 4 4 6 4
12 12 13 13 14 14 13 13 15 16 15 13 12 11 11 11 12 12 11 12 9 10 10 11 10 10 10 10 9 9 8 8 8 7 8 8 8 8 9 8 8 8 8 8 7 7 9 9 9 10 8 5 4 7 8 8 7 7 6 6 4 4 4 3 4 4 3 3 4 4 5 3 5 4 4 4 4 3 5 4 3 3 3 3 5
10 11 13 15 16 17 16 18 15 16 15 14 14 13 13 12 12 14 16 13 12 11 10 10 11 11 12 11 10 9 10 9 8 8 9 9 9 8 9 8 8 9 9 10 9 8 8 8 8 8 10 7 3 5 7 10 10 5 6 5 5 3 3 3 4 3 3 3 3 5 3 5 4 4 3 3 3 4 3 3 2 2 2 2 3
13 14 17 19 18 19 19 17 14 14 16 17 14 14 15 14 14 13 12 12 12 13 12 11 11 11 13 12 11 10 11 11 10 9 10 10 10 9 10 11 9 9 8 8 8 8 9 8 8 6 4 9 6 7 8 10 5 8 8 3 3 3 2 2 3 2 3 3 3 4 3 4 4 2 2 4 3 2 2 2 1 2 2 2 2
15 17 18 17 17 17 17 16 15 14 14 15 15 14 14 15 14 12 13 10 11 11 12 12 11 11 12 12 12 11 10 10 11 10 10 10 10 9 8 7 8 8 8 8 8 8 9 10 10 9 6 2 4 4 8 5 6 6 5 7 3 4 2 0 0 1 1 2 3 3 3 4 4 2 2 3 3 2 2 1 2 2 1 1 1
10 12 13 17 16 16 17 17 16 16 16 17 16 16 15 15 16 13 13 12 11 11 12 12 13 14 13 12 11 11 11 11 12 12 11 10 10 10 9 9 9 7 8 9 9 9 8 9 9 9 9 9 4 4 3 3 8 11 7 3 3 5 2 7 6 1 1 1 2 3 2 3 3 2 1 3 3 3 3 2 3 4 3 2 0
12 13 15 16 15 20 20 21 19 21 18 18 18 15 13 12 13 12 11 10 7 10 10 12 12 12 13 13 12 12 12 11 11 11 10 11 10 9 10 9 8 8 9 10 10 10 8 8 10 10 12 11 8 5 3 1 8 5 9 6 3 2 6 3 6 0 3 2 0 1 3 3 3 3 4 2 0 0 1 1 0 0 0 0 0
11 14 16 18 17 17 19 20 17 16 17 18 19 15 13 14 15 12 13 13 14 13 16 18 17 14 15 13 14 14 14 12 11 12 12 10 10 10 10 10 9 8 8 10 10 9 13 13 12 11 10 9 11 10 6 1 3 6 5 3 7 4 6 3 7 4 1 0 1 1 1 1 2 3 2 1 1 1 0 1 1 1 1 2 2
14 16 13 15 17 16 17 19 17 15 16 18 20 17 15 13 17 19 17 17 17 15 14 12 13 12 11 13 13 12 13 13 13 12 10 11 12 11 11 11 10 9 8 7 8 10 11 11 9 9 10 8 9 11 12 8 3 0 2 3 4 1 6 9 6 6 4 0 2 1 1 1 1 2 3 2 1 0 0 1 2 3 3 2 2
17 13 11 12 15 17 17 17 16 15 15 16 20 20 19 17 16 17 17 16 17 16 15 14 13 12 13 14 13 12 13 12 13 12 12 11 9 10 10 9 9 10 9 8 9 8 6 4 7 7 8 10 12 12 10 9 13 7 3 4 4 3 1 1 4 8 7 9 2 1 0 1 1 0 1 1 2 3 3 1 3 3 2 2 2
13 13 16 16 16 16 16 15 17 17 16 19 17 18 18 19 18 16 16 15 16 15 12 11 12 12 15 14 13 13 13 13 13 13 12 12 11 11 11 10 10 10 8 9 8 8 9 9 8 7 9 9 10 9 11 12 9 11 8 2 4 3 3 3 2 4 6 6 2 3 3 2 3 1 2 1 2 2 2 3 2 2 2 1 0
10 11 13 12 12 12 14 15 18 16 16 18 18 19 18 17 18 18 19 17 15 12 13 13 13 13 15 15 14 13 13 12 12 13 13 13 13 12 11 11 11 10 8 9 9 10 9 9 10 10 8 8 4 8 11 10 8 7 10 10 6 3 2 1 3 5 6 4 10 7 6 8 6 1 1 0 1 1 2 2 1 0 0 1 1
7 7 10 12 12 12 15 17 19 16 17 19 21 22 19 17 17 19 20 19 18 17 15 15 14 14 15 15 15 14 13 13 12 12 13 13 12 12 12 13 11 8 9 8 10 11 11 10 9 8 9 11 8 8 7 7 7 8 6 8 11 11 9 7 7 3 6 4 6 4 2 1 4 7 2 1 1 0 0 1 2 3 2 2 2
Wind_Direction
202 188 194 182 181 189 194 194 194 196 198 207 211 206 210 203 190 187 188 192 194 198 203 206 207 210 209 208 204 194 194 190 185 184 187 187 184 187 179 189 189 189 185 185 163 167 152 167 185 180 162 151 148 145 141 135 128 125 123 122 121 118 117 110 95 86 95 111 108 106 114 112 111 109 106 103 98 96 85 88 86 88 86 95 100
175 176 174 182 185 193 195 195 196 200 203 207 206 197 202 206 200 200 194 192 192 193 200 204 205 205 204 209 206 202 199 191 188 185 187 189 189 181 186 189 191 187 182 168 170 165 159 165 176 190 164 154 148 142 140 134 128 122 121 120 120 118 99 87 85 77 68 60 78 103 104 113 113 113 113 108 104 100 90 88 95 90 78 105 104
156 161 171 179 189 193 196 199 198 200 202 204 205 205 203 207 200 201 201 201 197 194 196 202 202 200 204 204 205 206 204 195 189 185 186 194 193 184 181 189 187 184 180 170 161 158 157 164 182 192 163 151 146 141 138 128 122 120 118 117 118 112 97 90 85 82 72 67 64 60 89 108 116 118 116 110 107 102 97 100 103 106 113 108 107
149 173 171 187 193 198 200 201 201 202 201 202 206 208 208 213 199 199 199 201 203 199 199 200 190 199 204 201 201 209 205 201 195 190 187 192 195 188 185 188 186 182 182 170 161 161 163 159 175 174 141 128 121 141 131 122 124 119 116 114 112 107 99 91 85 79 69 66 64 67 50 58 113 125 118 112 108 103 102 106 108 112 113 111 112
171 175 180 186 202 205 203 203 203 206 203 206 208 211 215 205 202 201 196 202 202 201 202 199 192 195 193 200 205 203 202 199 201 192 188 193 194 189 185 184 186 179 184 173 167 165 156 155 164 136 117 136 146 142 123 126 121 117 115 114 112 108 100 94 86 78 73 67 65 64 48 44 78 119 118 113 106 103 101 101 107 105 104 109 105
177 182 188 191 195 206 208 206 205 208 205 209 212 212 214 211 204 202 196 202 198 204 201 200 201 195 187 200 201 197 189 196 201 202 205 197 190 187 186 183 185 179 183 171 168 160 162 158 148 144 148 150 147 133 123 121 118 116 116 116 113 107 101 95 89 83 79 67 62 58 49 57 100 129 120 115 113 112 112 108 106 102 99 101 104
180 176 188 201 205 208 211 210 209 207 208 210 213 215 220 210 198 202 203 202 200 199 200 205 196 198 188 192 192 182 192 188 190 203 203 198 188 183 186 185 184 180 182 166 168 156 160 158 153 153 149 146 134 125 122 120 119 119 117 115 113 107 101 94 90 86 80 75 71 58 54 58 93 101 122 117 114 112 108 108 106 104 102 102 96
184 176 188 200 213 210 213 215 214 207 210 212 210 218 213 207 200 199 202 205 195 202 195 200 194 196 187 181 184 189 176 187 188 171 165 170 186 185 184 189 186 181 177 164 164 164 164 161 154 154 144 137 132 129 125 121 120 119 116 115 112 106 100 95 89 87 81 81 70 63 60 66 88 123 122 111 110 106 105 100 104 100 96 89 82
198 185 186 200 216 214 212 214 228 218 213 209 205 219 213 207 205 201 200 201 197 197 191 193 187 203 187 176 193 195 181 184 180 152 135 135 158 193 187 190 187 176 170 165 162 164 165 158 153 147 140 135 131 129 127 123 121 119 117 115 111 106 100 94 90 82 78 76 74 71 74 78 93 106 110 110 113 112 110 107 98 94 93 93 93
222 190 191 202 216 214 208 213 229 229 218 213 204 215 206 208 208 202 195 196 186 179 165 207 232 208 179 184 191 197 188 182 173 155 136 128 102 139 185 180 166 173 161 163 156 155 159 146 140 138 140 135 133 131 129 126 123 120 120 117 114 108 100 94 86 77 83 80 79 81 88 95 95 109 119 117 114 109 104 97 92 96 97 92 95
234 205 187 200 224 216 207 213 228 237 220 219 211 208 206 205 209 207 197 204 172 161 203 171 191 216 194 184 185 190 192 182 171 160 134 114 117 129 150 157 165 164 161 152 146 142 148 147 144 144 144 137 135 133 130 128 124 124 123 120 115 106 97 90 82 82 81 81 77 71 79 81 107 114 122 117 113 110 110 106 109 109 107 106 102
246 221 182 186 219 219 210 214 233 236 215 205 211 211 205 202 207 213 207 200 173 182 181 173 191 199 199 188 184 180 188 185 165 156 139 118 109 117 146 146 160 155 167 153 148 147 155 158 152 157 141 137 137 134 130 128 128 132 126 120 112 102 97 90 87 86 81 79 75 72 75 79 122 121 119 116 113 113 112 109 105 104 102 99 98
261 231 172 171 187 215 212 212 226 241 224 200 214 199 205 223 215 215 217 194 175 170 194 188 180 178 197 196 192 178 181 176 168 153 140 123 115 116 132 153 157 148 147 159 158 162 152 147 152 144 138 133 127 128 131 136 136 134 126 117 109 104 98 92 92 85 79 77 74 73 86 95 129 125 122 119 112 110 112 109 110 110 102 96 96
266 215 162 177 187 193 205 215 224 231 216 209 210 200 198 212 223 227 219 182 148 200 188 192 183 190 185 178 185 185 176 173 166 151 145 132 119 117 115 133 143 135 139 150 152 146 143 143 142 138 136 134 128 129 140 136 137 130 121 113 108 104 95 88 88 86 83 82 82 86 100 125 146 127 126 122 117 119 117 111 109 107 102 97 95
249 207 163 186 193 196 201 220 237 239 226 215 217 213 217 211 219 224 205 183 169 183 196 199 201 221 178 176 182 186 178 167 167 153 146 139 133 126 121 122 137 146 143 141 140 139 138 134 136 132 131 127 129 134 138 136 133 125 116 112 108 105 98 99 93 95 90 87 89 99 111 133 134 128 125 121 122 123 116 110 107 104 99 97 91
263 229 178 210 199 205 196 215 235 266 302 256 216 218 216 211 207 209 198 162 155 158 187 203 219 201 173 174 179 184 178 165 167 161 144 142 142 136 129 125 116 126 146 142 144 142 136 132 127 116 113 120 130 135 139 131 124 116 112 110 106 105 107 107 104 98 95 93 93 97 109 135 133 134 133 124 121 116 113 110 110 107 103 100 98
265 242 215 216 195 200 201 186 204 190 187 206 155 180 225 219 180 164 172 149 148 165 193 209 200 180 177 176 182 185 173 164 161 159 148 142 142 137 132 131 128 130 128 132 135 130 125 121 110 106 119 126 129 133 133 123 117 111 106 104 107 109 112 108 102 99 101 97 93 92 89 105 129 131 125 124 119 113 113 112 110 106 107 106 103
252 246 227 208 177 180 164 176 164 147 141 151 137 159 170 185 180 152 136 142 152 167 193 187 170 136 87 70 85 110 113 166 163 152 156 146 141 139 140 137 129 132 126 124 124 118 118 110 110 113 119 114 117 128 125 122 118 116 113 113 111 110 108 102 100 100 99 98 96 93 89 120 121 125 127 123 116 112 112 109 112 112 110 103 103
240 250 233 200 164 155 171 181 161 155 152 138 135 165 157 152 133 130 136 143 149 150 160 167 162 140 124 125 162 113 124 49 156 146 201 148 142 139 137 136 136 137 133 133 132 127 119 112 112 114 114 118 131 132 122 116 113 111 113 113 112 110 106 102 102 101 101 101 101 103 129 130 123 122 125 125 118 117 113 111 112 117 114 113 110
223 241 233 208 160 157 165 171 173 150 172 143 142 154 154 145 139 138 142 142 146 148 158 166 167 150 140 134 130 130 121 127 213 162 184 133 128 128 137 141 141 127 129 136 135 131 125 126 131 135 132 137 125 120 122 127 118 119 117 111 113 106 102 101 104 100 102 106 109 126 138 126 130 128 126 131 131 120 118 111 113 112 113 116 115
226 226 219 211 165 159 161 166 183 156 149 149 129 140 145 144 139 141 142 143 143 148 158 159 159 143 130 125 123 130 135 123 139 136 146 128 127 132 140 130 122 126 132 135 138 137 133 133 136 138 139 137 132 136 136 127 119 119 118 114 111 106 110 107 104 101 95 101 109 144 145 144 138 130 130 130 132 129 124 121 121 116 116 118 115
216 218 210 198 175 167 162 166 184 164 143 136 136 141 131 132 134 135 136 136 133 130 133 143 142 133 135 130 131 129 126 116 122 138 158 133 137 134 130 132 138 131 125 139 142 139 134 134 135 133 127 126 126 126 123 121 121 121 118 113 106 111 113 114 106 99 96 92 125 171 167 143 137 130 128 128 129 127 124 123 119 120 120 119 117
216 216 209 191 186 169 162 170 173 168 139 137 136 143 132 127 129 131 130 127 130 130 139 147 135 129 81 110 141 144 134 126 123 140 139 141 133 135 132 128 135 127 128 130 139 138 140 128 111 114 117 120 118 120 120 120 117 117 115 111 115 115 114 107 102 99 98 105 124 155 153 142 141 130 127 124 124 124 125 126 124 125 122 118 120
211 206 210 190 181 180 171 169 161 174 152 147 145 138 144 142 135 140 137 139 140 141 142 144 139 142 129 109 104 119 127 132 126 125 127 120 128 132 132 128 124 121 123 123 136 149 133 102 99 99 100 109 113 115 117 117 119 113 109 115 119 118 110 109 108 98 89 82 101 99 149 143 137 133 125 127 129 132 129 127 123 121 121 127 125
204 199 210 196 190 182 172 167 163 173 168 164 156 149 146 146 143 151 150 151 148 146 146 147 143 144 145 141 139 124 108 107 129 139 142 139 135 133 132 132 126 127 124 133 136 115 100 101 88 88 96 111 113 115 117 114 111 113 114 118 116 110 101 101 103 95 80 63 40 323 139 136 143 137 129 130 127 132 132 131 131 129 127 123 120
202 203 206 200 191 186 179 171 166 173 177 171 167 151 146 157 151 156 158 164 160 157 152 152 153 153 154 153 155 140 132 123 126 131 139 142 134 145 144 129 120 122 121 107 104 115 113 114 108 101 102 107 112 114 115 122 124 121 120 117 110 103 102 97 95 86 65 56 44 98 138 143 147 132 132 131 134 134 132 131 130 126 126 126 121
204 212 201 201 192 186 181 172 174 170 173 171 165 156 158 160 158 163 162 167 174 160 163 163 166 161 154 154 156 153 147 147 143 145 146 147 145 152 156 138 130 123 114 110 92 116 132 126 116 110 111 110 108 112 117 121 127 123 115 107 103 103 102 101 91 83 68 66 67 46 102 144 142 136 137 138 138 138 134 131 129 127 129 127 124
210 216 204 196 191 190 184 175 180 173 170 168 167 167 160 160 167 162 177 168 167 175 168 173 149 139 151 171 158 163 153 148 152 153 155 149 156 152 150 132 120 116 119 118 122 126 127 122 122 120 120 122 118 115 118 119 120 119 111 103 99 97 98 97 92 80 79 74 77 42 77 101 147 141 144 148 151 144 138 134 128 126 126 128 125
210 210 209 200 195 189 183 183 179 177 171 167 169 169 167 165 164 172 176 178 170 172 173 163 161 162 166 187 181 160 160 157 159 160 154 154 151 157 152 147 133 134 131 137 152 152 128 125 123 121 121 124 122 118 114 109 111 109 111 106 103 100 98 96 93 89 83 85 94 76 75 113 147 138 140 145 144 144 141 139 133 128 129 127 128
207 202 209 206 192 188 190 186 181 177 171 168 171 170 173 169 171 176 175 170 182 174 167 166 168 160 174 171 192 173 167 170 164 158 155 155 151 124 77 126 144 141 143 163 179 152 143 129 120 117 119 120 115 119 117 105 93 97 102 105 97 101 102 104 96 92 94 82 75 75 73 94 138 136 136 137 141 146 147 149 137 138 137 131 126
196 204 209 207 189 185 195 192 183 177 170 172 174 175 174 176 171 174 167 181 170 174 178 168 167 176 173 173 174 169 158 151 145 157 150 149 149 141 125 113 122 145 141 148 163 150 134 129 124 124 123 120 113 116 114 105 93 81 87 95 97 96 93 91 93 89 88 90 93 91 75 75 91 132 134 138 156 149 143 146 140 138 135 132 131
197 205 205 201 191 195 194 193 191 181 175 175 173 177 179 179 172 172 172 176 172 171 176 177 172 175 173 176 175 172 169 159 155 156 153 146 142 136 143 150 150 144 136 134 148 146 136 122 108 102 101 110 112 105 108 109 98 97 95 93 90 90 89 89 88 84 80 80 85 83 85 78 81 85 115 148 148 128 142 143 136 132 133 130 130
209 202 197 198 201 194 191 192 187 183 183 179 174 178 182 177 172 181 173 168 173 177 177 180 175 179 175 179 178 179 178 163 166 161 161 155 142 145 146 147 153 142 130 133 138 133 114 113 102 100 97 102 110 107 100 104 112 105 99 94 97 86 82 83 80 75 68 62 69 87 82 84 87 78 82 76 75 138 148 152 151 136 140 139 138
201 198 191 202 200 193 190 186 187 184 182 179 172 172 182 181 174 176 172 167 171 178 184 181 177 179 174 178 184 183 180 176 166 156 145 147 149 149 147 146 148 129 119 122 132 140 124 120 125 115 116 117 117 124 122 109 102 107 100 103 92 93 89 77 69 71 64 40 38 59 67 76 77 89 80 78 78 85 115 121 125 142 150 151 150
196 196 198 200 192 194 189 188 186 185 182 182 176 171 176 181 178 175 176 173 173 177 178 179 180 182 169 181 179 173 180 177 169 155 159 154 153 153 150 143 129 125 122 135 134 133 131 124 126 114 112 107 114 120 124 125 128 122 121 120 109 101 82 89 78 69 65 49 52 50 54 61 64 75 75 78 64 65 71 79 97 141 153 146 154
200 200 199 192 196 195 190 192 185 183 183 181 181 173 170 180 182 176 173 177 173 174 176 182 180 176 179 179 176 168 166 172 158 152 145 154 155 150 149 137 134 128 136 132 138 140 134 114 117 128 123 121 123 112 125 128 128 121 113 104 114 110 106 98 96 83 84 70 58 63 54 60 68 77 79 76 76 66 73 78 76 57 40 154 157
203 196 194 193 197 195 192 189 189 188 183 180 179 176 171 179 184 178 171 180 177 175 175 176 176 178 181 180 175 169 165 165 158 156 146 147 144 141 141 135 130 139 140 140 146 144 137 131 117 127 129 135 133 130 126 125 115 107 98 95 90 105 111 117 114 117 104 87 84 82 83 76 82 82 83 83 82 83 78 83 78 74 59 53 56
208 200 195 192 195 194 193 191 186 187 185 184 181 174 175 177 182 183 172 182 179 175 172 171 179 181 178 181 175 169 167 162 158 159 148 145 144 139 139 144 147 138 133 140 144 142 133 133 120 108 133 127 132 136 130 112 111 106 94 94 85 81 84 89 95 107 115 121 113 98 88 90 77 71 79 83 82 84 79 86 93 105 96 85 89
209 204 199 197 195 193 191 192 187 187 186 183 183 174 172 177 178 178 177 184 182 176 171 173 178 179 182 179 174 169 168 161 159 157 147 147 144 144 146 148 138 136 134 144 140 138 138 139 136 117 96 126 143 139 133 123 109 102 93 77 86 89 81 81 79 85 88 105 108 103 95 73 86 70 78 74 73 79 84 57 78 81 63 74 94
210 205 202 197 197 195 194 192 189 186 185 183 178 176 173 181 178 175 181 190 186 176 173 176 175 180 181 175 177 173 168 163 162 161 152 150 148 154 149 152 149 145 143 147 154 157 156 148 144 137 124 76 90 129 127 112 90 90 93 71 66 91 86 95 86 89 97 91 102 96 95 74 80 76 72 76 78 80 83 94 84 75 73 62 54
206 203 202 202 197 196 193 196 191 184 182 184 185 180 179 182 185 184 183 184 187 178 176 176 179 180 175 177 177 177 171 164 166 163 161 157 156 154 154 161 160 159 159 164 160 157 152 150 144 144 140 131 108 147 142 127 117 72 67 77 69 43 71 94 106 104 98 97 86 95 86 85 70 78 47 53 63 64 63 61 68 62 53 35 31
209 201 203 202 199 198 198 197 187 187 187 188 187 184 182 187 183 185 179 179 181 182 182 178 180 179 175 175 178 179 176 170 169 172 165 164 162 164 168 168 167 170 161 152 156 153 151 149 148 131 155 144 147 167 165 127 137 147 135 112 54 40 30 71 107 81 96 89 106 102 98 106 97 80 53 75 56 60 63 76 61 56 41 43 36
203 201 206 203 204 203 203 196 194 191 190 189 185 191 183 181 182 182 180 181 185 184 178 175 176 176 178 177 177 177 177 177 172 172 169 171 169 169 166 161 166 156 152 157 156 158 162 158 163 151 133 74 110 179 177 163 135 118 106 101 161 148 310 230 24 81 62 83 88 113 122 115 110 95 115 100 102 107 106 104 110 121 127 134 167
216 214 209 209 206 206 201 195 195 194 195 192 192 191 186 180 177 175 180 176 181 182 178 172 177 177 177 180 179 175 179 182 180 173 173 172 171 173 163 172 173 160 156 160 166 165 166 164 163 155 148 136 147 187 208 144 136 140 150 162 170 123 196 245 186 253 330 109 120 132 132 135 127 111 103 148 170 160 163 167 169 182 188 194 130
226 219 213 210 207 206 202 197 195 195 195 192 189 186 179 177 174 171 173 172 169 177 174 179 180 181 177 176 181 181 182 179 181 180 178 175 173 169 168 171 168 167 167 165 176 177 171 167 165 158 168 159 155 140 199 176 161 156 128 111 77 158 215 206 135 253 11 116 13 125 147 137 152 165 169 195 239 224 224 229 342 24 24 70 131
248 235 223 217 211 209 205 203 201 198 193 191 189 185 184 179 173 170 175 173 178 180 188 184 181 181 183 178 175 179 181 182 182 183 182 176 176 173 169 167 170 172 178 178 176 166 177 181 184 171 166 167 154 145 156 253 195 151 150 135 163 173 170 221 132 188 2 46 8 14 173 173 157 169 166 188 204 237 130 177 150 189 199 197 199
251 245 238 231 224 218 211 205 202 198 192 191 187 188 190 189 184 182 183 182 182 192 190 184 177 177 170 175 177 180 183 180 184 185 189 183 175 173 174 176 171 178 178 171 173 179 180 185 172 173 170 149 149 161 165 163 74 60 93 96 89 108 160 135 189 113 119 198 22 75 53 344 219 173 201 215 211 188 258 186 187 201 209 205 191
246 254 254 246 233 224 213 211 207 202 197 189 187 189 190 192 190 187 184 185 186 188 186 185 181 171 172 176 175 178 182 185 183 183 179 181 180 174 176 169 175 181 174 184 184 178 166 159 176 175 157 168 169 165 161 164 168 179 133 105 83 74 37 90 137 157 143 142 174 17 195 35 57 347 238 222 208 203 210 220 211 224 237 233 208
254 244 238 233 230 228 222 216 211 204 201 194 189 190 190 191 193 188 187 189 187 185 180 177 178 174 175 175 174 176 180 184 185 181 182 179 176 177 174 177 179 181 183 182 180 169 172 166 165 163 175 179 180 169 161 177 175 168 147 99 92 59 37 44 112 98 136 124 106 154 157 48 71 32 350 295 274 240 213 211 203 207 204 266 288
263 243 244 240 234 229 227 220 217 210 203 198 194 193 191 188 192 192 189 188 185 181 174 177 179 175 179 177 175 176 179 182 185 184 177 179 180 175 177 178 180 180 183 184 175 173 172 176 177 176 173 174 168 164 178 177 181 164 174 152 140 119 72 59 40 95 58 72 155 184 178 151 133 175 341 70 300 272 224 210 210 357 3 239 239
286 247 242 239 232 226 223 219 218 212 204 200 194 195 196 195 195 190 187 186 183 177 175 177 178 176 182 180 179 177 177 181 180 184 182 178 182 178 178 182 181 178 181 182 182 181 179 177 176 172 173 173 174 174 169 175 162 162 169 173 166 168 169 168 181 159 126 120 83 107 89 46 157 141 205 232 236 222 215 151 133 149 164 151 177